Weather History for KLOR - December, 2013

Change the Weather History Date:

Sunday, December 8, 2013

  Actual Average (KDHN) Record (KDHN)
Temperature  
Mean Temperature 63 °F 53 °F  
Max Temperature 75 °F 64 °F 80 °F (1951)
Min Temperature 51 °F 41 °F 24 °F (2006)
Degree Days  
Heating Degree Days 2 13  
Month to date heating degree days 95  
Since 1 July heating degree days 372  
Growing Degree Days 13 (Base 50)    
Moisture  
Dew Point 59 °F    
Average Humidity 90    
Maximum Humidity 100    
Minimum Humidity 67    
Precipitation  
Precipitation 0.02 in 0.17 in 0.82 in (1948)
Month to date precipitation 1.49  
Year to date precipitation 51.07  
Sea Level Pressure  
Sea Level Pressure 30.15 in    
Wind  
Wind Speed 1 mph (SSE)    
Max Wind Speed 6 mph    
Max Gust Speed -    
Visibility 5 miles    
Events Fog    
T = Trace of Precipitation, MM = Missing Value Source: NWS Daily Summary

Daily Weather History Graph

Daily Weather History Graph

Search for Another Location

Airport or City:

Trip Planner

Search our weather history database for the weather conditions in past years. The results will help you decide how hot, cold, wet, or windy it might be!

Date:

Astronomy

Dec. 08, 2013 Rise Set
Actual Time 6:29 AM CST 4:40 PM CST
Civil Twilight 6:03 AM CST 5:06 PM CST
Nautical Twilight 5:33 AM CST 5:37 PM CST
Astronomical Twilight 5:03 AM CST 6:06 PM CST
Moon 11:07 AM CST (12/8) 11:09 PM CST (12/8)
Length of Visible Light 11h 03m
Length of Day
10h 10m
Waxing Crescent, 40% of the Moon is Illuminated
Dec 8
Waxing Crescent
Dec 9
First Quarter
Dec 17
Full
Dec 25
Last Quarter
Jan 1
New

Hourly Weather History & Observations

Time (CST) Temp. Dew Point Humidity Pressure Visibility Wind Dir Wind Speed Gust Speed Precip Events Conditions
12:53 AM 51.1 °F 48.9 °F 92% 30.20 in 4.0 mi Calm Calm - N/A   Overcast
1:46 AM 51.8 °F 48.2 °F 88% 30.20 in 2.0 mi Calm Calm - N/A   Overcast
1:53 AM 51.1 °F 50.0 °F 96% 30.20 in 2.0 mi Calm Calm - N/A   Overcast
2:02 AM 51.8 °F 50.0 °F 94% 30.20 in 1.2 mi Calm Calm - N/A   Overcast
2:09 AM 51.8 °F 50.0 °F 94% 30.20 in 1.0 mi Calm Calm - N/A   Overcast
2:31 AM 51.8 °F 50.0 °F 94% 30.19 in 0.8 mi Calm Calm - N/A   Overcast
2:40 AM 51.8 °F 50.0 °F 94% 30.19 in 1.0 mi ENE 3.5 mph - N/A   Overcast
2:53 AM 51.1 °F 50.0 °F 96% 30.19 in 1.2 mi Calm Calm - N/A   Overcast
3:53 AM 52.0 °F 50.0 °F 93% 30.18 in 1.8 mi ENE 3.5 mph - 0.01 in   Overcast
4:03 AM 51.8 °F 51.8 °F 100% 30.18 in 2.0 mi East 3.5 mph - N/A   Overcast
4:31 AM 51.8 °F 51.8 °F 100% 30.18 in 4.0 mi East 5.8 mph - N/A   Overcast
4:53 AM 53.1 °F 52.0 °F 96% 30.19 in 4.0 mi Calm Calm - N/A   Overcast
5:28 AM 53.6 °F 51.8 °F 94% 30.19 in 2.0 mi Calm Calm - N/A   Overcast
5:36 AM 53.6 °F 51.8 °F 94% 30.19 in 1.5 mi Calm Calm - N/A   Overcast
5:50 AM 53.6 °F 51.8 °F 94% 30.19 in 0.5 mi Calm Calm - N/A Fog Fog
5:53 AM 53.1 °F 52.0 °F 96% 30.19 in 0.5 mi Calm Calm - N/A Fog Fog
6:53 AM 54.0 °F 53.1 °F 97% 30.19 in 0.2 mi Calm Calm - N/A Fog Fog
7:53 AM 55.0 °F 55.0 °F 100% 30.20 in 0.8 mi Calm Calm - N/A   Overcast
8:53 AM 57.0 °F 57.0 °F 100% 30.19 in 0.2 mi SSE 3.5 mph - 0.01 in Fog Fog
9:53 AM 61.0 °F 60.1 °F 97% 30.18 in 0.5 mi Calm Calm - N/A Fog Fog
10:07 AM 62.6 °F 60.8 °F 94% 30.18 in 1.2 mi SSE 4.6 mph - N/A   Overcast
10:22 AM 62.6 °F 60.8 °F 94% 30.17 in 3.0 mi Variable 4.6 mph - N/A   Overcast
10:53 AM 64.0 °F 62.1 °F 93% 30.16 in 8.0 mi South 3.5 mph - N/A   Overcast
11:04 AM 64.4 °F 62.6 °F 94% 30.16 in 9.0 mi Calm Calm - N/A   Overcast
11:44 AM 68.0 °F 62.6 °F 83% 30.13 in 10.0 mi Calm Calm - N/A   Overcast
11:53 AM 70.0 °F 63.0 °F 78% 30.12 in 10.0 mi Calm Calm - N/A   Mostly Cloudy
12:01 PM 69.8 °F 64.4 °F 83% 30.12 in 10.0 mi NW 3.5 mph - N/A   Mostly Cloudy
12:14 PM 71.6 °F 62.6 °F 73% 30.11 in 10.0 mi Calm Calm - N/A   Mostly Cloudy
12:53 PM 71.1 °F 64.0 °F 78% 30.09 in 10.0 mi Calm Calm - N/A   Overcast
1:01 PM 71.6 °F 64.4 °F 78% 30.09 in 10.0 mi Calm Calm - N/A   Overcast
1:38 PM 73.4 °F 64.4 °F 73% 30.08 in 10.0 mi Variable 3.5 mph - N/A   Mostly Cloudy
1:46 PM 73.4 °F 64.4 °F 73% 30.08 in 10.0 mi Calm Calm - N/A   Mostly Cloudy
1:53 PM 73.9 °F 64.0 °F 71% 30.07 in 10.0 mi Calm Calm - N/A   Scattered Clouds
2:53 PM 75.9 °F 64.9 °F 69% 30.07 in 10.0 mi Variable 3.5 mph - N/A   Clear
3:53 PM 75.9 °F 64.0 °F 67% 30.08 in 10.0 mi SW 5.8 mph - N/A   Scattered Clouds
4:53 PM 72.0 °F 64.0 °F 76% 30.09 in 10.0 mi WSW 3.5 mph - N/A   Clear
5:53 PM 66.9 °F 64.0 °F 90% 30.10 in 10.0 mi Calm Calm - N/A   Clear
6:53 PM 66.0 °F 64.0 °F 93% 30.11 in 7.0 mi Calm Calm - N/A   Clear
7:53 PM 66.0 °F 64.9 °F 96% 30.10 in 7.0 mi SSW 3.5 mph - N/A   Clear
8:53 PM 66.9 °F 64.9 °F 93% 30.10 in 7.0 mi South 4.6 mph - N/A   Clear
9:32 PM 66.2 °F 66.2 °F 100% 30.11 in 6.0 mi South 3.5 mph - N/A   Scattered Clouds
9:38 PM 66.2 °F 66.2 °F 100% 30.11 in 6.0 mi South 4.6 mph - N/A   Mostly Cloudy
9:53 PM 68.0 °F 66.0 °F 93% 30.11 in 6.0 mi South 3.5 mph - N/A   Overcast
10:53 PM 68.0 °F 66.0 °F 93% 30.11 in 6.0 mi South 4.6 mph - N/A   Overcast
11:53 PM 68.0 °F 66.9 °F 96% 30.09 in 5.0 mi South 4.6 mph - N/A   Overcast